OBJECT T, 68997

Orbit data source: Space-Track

You're viewing an Uncataloged Satellite

Recently launched and/or uncataloged satellites may have evolving metadata. Metadata may include but not limited to: Owner, Maufacturer, Bus, Motor, and Mission.

OBJECT T, 68997 is a satellite in SSO that was launched on Sun, 03 May 2026 UTC launched from the Air Force Western Test Range (AFWTR). Unknown objects in Earth's orbit typically refer to objects detected orbiting the Earth but have not yet been identified or cataloged. These objects could be anything from previously untracked satellites, spent rocket stages, debris from satellite collisions, or even natural meteoroids temporarily captured by Earth's gravity.

Loading next visibility...
Identifier
68997, 2026-100T
Orbit
SSO
Country
Flag of TBDTBD
Related business
None
Manufacturer
Unknown
Mission
Operational spacecraft
Bus & Motor
Unknown
Mass
Unknown
Launch date (UTC)
2026-05-03 (1 week ago)
Launch vehicle
Unknown
Launch site
Air Force Western Test Range (AFWTR)
Object type
Unknown
Shape & HBR
Unknown
Radar Cross Section
RCS unknown

Expand to show TLE details & history
Last TLE update: 7 hours ago

TLE from 7 hours ago
0 OBJECT T
1 68997U 26100T   26130.17528839  .00001029  00000-0  10820-3 0  9999
2 68997  97.7400  28.3347 0000833 248.7625 111.3504 14.91534907  1035
Epoch: 2026-05-10T04:12Z
TLE epoch observation values (Epoch: 2026-05-10T04:12:24.916Z)
Latitude
-0.00012°
Longitude
97.24876°
Altitude
596.402 km
Speed
7.561 km/s
True Right ascension
01h 53m 20s
True Declination
0° 00' 00"
Sunlit
Object was in daylight at epoch
Visualization orbit readout
Latitude
Unknown
Longitude
Unknown
Altitude
Unknown
Speed
Unknown
Apparent Right ascension
Unknown
Apparent Declination
Unknown
Sunlit
N/A
Visualization observer readout
Local Sidereal Time
18:56:51
Azimuth
Unknown
Elevation
Unknown
Doppler factor
Unknown
Orbital elements
Apogee altitude
590.748 km
Perigee altitude
589.587 km
Semi-major axis
6,968.304 km
Eccentricity
0.00008
Inclination
97.74°
RAAN
28.3347°
Arg. of periapsis
248.7625°
True anomaly
111.35929°
Mean anomaly
111.3504°
Eccentric anomaly
111.35485°
Mean motion
3.73123 °/min
Orbital period
96.48 mins
BSTAR
0.0001082
Loading maneuver chart data...
Computing Atmospheric mass density...
Loading historical data...
Loading historical data...
Loading historical data...
Loading historical data...
Loading historical data...
Loading historical data...
Loading historical data...

Documentation

Showing up to 5 results
|